Location: ECC Obs
(38.4314°N, 90.9815°W)
Time: 11:43:38
(UTC-05:00)

A-11 Canister half - Visible Passes

Search period start: 30 March 2020 00:00
Search period end: 09 April 2020 00:00
Orbit: 1517 x 1683 km, 47.2° (Epoch: 29 March)

Date Brightness Start Highest point End Pass type
(mag) Time Alt. Az. Time Alt. Az. Time Alt. Az.
30 Mar 10.5 04:38:21 10° S 04:46:00 27° SE 04:53:52 10° ENE visible
31 Mar 10.5 04:16:51 13° S 04:23:11 25° SE 04:30:42 10° ENE visible
31 Mar 9.3 06:17:16 10° SW 06:27:03 79° SE 06:37:10 10° ENE visible
01 Apr 10.6 03:55:36 16° SSE 04:00:21 23° SE 04:07:31 10° ENE visible
01 Apr 9.3 05:54:24 10° SW 06:04:07 75° SE 06:14:11 10° ENE visible
02 Apr 10.5 03:34:16 18° SSE 03:37:31 21° SE 03:44:17 10° E visible
02 Apr 9.3 05:32:29 14° SW 05:41:12 72° SE 05:51:13 10° ENE visible
03 Apr 10.5 03:12:51 18° SE 03:14:42 19° SE 03:21:01 10° E visible
03 Apr 9.3 05:11:03 20° SW 05:18:17 68° SE 05:28:13 10° ENE visible
04 Apr 10.6 02:51:21 17° SE 02:51:53 17° ESE 02:57:41 10° E visible
04 Apr 9.3 04:49:33 27° SSW 04:55:22 65° SE 05:05:14 10° ENE visible
05 Apr 10.7 02:29:47 16° ESE 02:29:47 16° ESE 02:34:17 10° E visible
05 Apr 9.3 04:27:59 34° SSW 04:32:29 61° SE 04:42:15 10° ENE visible
06 Apr 10.9 02:08:10 13° ESE 02:08:10 13° ESE 02:10:46 10° E visible
06 Apr 9.3 04:06:22 42° S 04:09:35 58° SE 04:19:14 10° ENE visible
06 Apr 9.3 06:04:55 10° WSW 06:14:39 66° NNW 06:24:42 10° ENE visible
07 Apr 11.0 01:46:29 11° ESE 01:46:29 11° ESE 01:47:04 10° E visible
07 Apr 9.3 03:44:41 47° S 03:46:42 54° SE 03:56:15 10° ENE visible
07 Apr 9.3 05:42:52 14° WSW 05:51:39 68° NNW 06:01:42 10° ENE visible
08 Apr 9.3 03:22:56 50° SSE 03:23:50 51° SE 03:33:14 10° ENE visible
08 Apr 9.2 05:21:08 19° WSW 05:28:40 70° NNW 05:38:43 10° ENE visible
